Location: Brno
(49.2000°N, 16.6330°E)
Time: 11:41:01
(UTC+02:00)

ISS - Visible Passes

Search period start: 18 September 2014 00:00
Search period end: 28 September 2014 00:00
Orbit: 414 x 417 km, 51.6° (Epoch: 18 September)

Date Brightness Start Highest point End Pass type
(mag) Time Alt. Az. Time Alt. Az. Time Alt. Az.
18 Sep -3.0 04:44:32 47° SSW 04:45:04 55° SSE 04:48:21 10° ENE visible
19 Sep -1.2 03:57:46 25° E 03:57:46 25° E 03:59:30 10° E visible
19 Sep -3.1 05:30:39 18° W 05:33:00 67° NNW 05:36:20 10° ENE visible
20 Sep -3.4 04:43:49 69° W 04:44:10 84° NNW 04:47:31 10° ENE visible
21 Sep -1.3 03:56:56 28° ENE 03:56:56 28° ENE 03:58:40 10° ENE visible
21 Sep -2.8 05:29:48 17° WNW 05:32:10 54° N 05:35:27 10° ENE visible
22 Sep -3.1 04:42:53 55° NW 04:43:13 59° N 04:46:32 10° ENE visible
23 Sep -1.1 03:55:57 26° ENE 03:55:57 26° ENE 03:57:36 10° ENE visible
23 Sep -2.8 05:28:49 17° WNW 05:31:12 56° N 05:34:30 10° E visible
24 Sep -2.8 04:41:53 51° NNW 04:42:11 53° N 04:45:28 10° E visible
25 Sep -0.9 03:54:56 24° ENE 03:54:56 24° ENE 03:56:25 10° ENE visible
25 Sep -3.2 05:27:48 19° WNW 05:30:03 74° NNE 05:33:23 10° ESE visible
26 Sep -3.0 04:40:53 61° N 04:41:00 61° N 04:44:18 10° E visible
27 Sep -0.6 03:54:00 20° ENE 03:54:00 20° ENE 03:55:10 10° E visible
27 Sep -3.3 05:26:53 25° WNW 05:28:40 68° SSW 05:31:59 10° ESE visible
